This is the latest recevied weather packets stored in our database for station/object KC3ULW-13. If no packets are shown the sender has not sent any weather packets the latest 10 day(s).
| Time | Temp. | Humidity | Pressure | Rain* | Wind** | Luminosity | Snow |
|---|---|---|---|---|---|---|---|
| 1777493040 | 15.56° C | 91% | 1008.5 hPa | 0 mm | - | 94 W/m² | - |
| 1777492736 | 16.11° C | 92% | 1008.4 hPa | 0 mm | - | 173 W/m² | - |
| 1777492431 | 16.11° C | 92% | 1008.5 hPa | 0 mm | - | 310 W/m² | - |
| 1777492129 | 16.11° C | 92% | 1008.3 hPa | 0 mm | - | 226 W/m² | - |
| 1777491825 | 16.11° C | 92% | 1008.4 hPa | 0 mm | - | 24 W/m² | - |
| 1777491522 | 16.11° C | 92% | 1008.2 hPa | 0 mm | - | 331 W/m² | - |
| 1777491220 | 16.11° C | 93% | 1008.5 hPa | 0 mm | - | 256 W/m² | - |
| 1777490916 | 16.11° C | 93% | 1008.3 hPa | 3.56 mm | - | 120 W/m² | - |
| 1777490612 | 16.11° C | 93% | 1008.2 hPa | 3.56 mm | - | 153 W/m² | - |
| 1777490308 | 16.11° C | 92% | 1008.2 hPa | 1.27 mm | - | 139 W/m² | - |
| 1777490006 | 16.11° C | 92% | 1008.4 hPa | 4.32 mm | - | 47 W/m² | - |
| 1777489704 | 16.67° C | 92% | 1008.4 hPa | 3.05 mm | - | 17 W/m² | - |
| 1777489400 | 16.67° C | 92% | 1008.3 hPa | 0 mm | - | 33 W/m² | - |
| 1777489097 | 16.67° C | 92% | 1008.7 hPa | 0 mm | - | 23 W/m² | - |
| 1777488794 | 16.67° C | 92% | 1008.5 hPa | 1.78 mm | - | 45 W/m² | - |
| 1777488491 | 16.67° C | 92% | 1008.3 hPa | 1.78 mm | - | 31 W/m² | - |
| 1777488189 | 16.67° C | 92% | 1008.3 hPa | 1.27 mm | - | 20 W/m² | - |
| 1777487887 | 16.67° C | 92% | 1008.3 hPa | 3.05 mm | - | 19 W/m² | - |
| 1777487584 | 16.67° C | 92% | 1008.4 hPa | 3.05 mm | - | 97 W/m² | - |
| 1777487281 | 16.67° C | 92% | 1008.1 hPa | 1.78 mm | - | 85 W/m² | - |
| 1777486978 | 17.22° C | 92% | 1008.4 hPa | 0 mm | - | 46 W/m² | - |
| 1777486674 | 17.22° C | 92% | 1008.4 hPa | 0 mm | - | 70 W/m² | - |
| 1777486372 | 17.22° C | 92% | 1008.4 hPa | 0 mm | - | 124 W/m² | - |
| 1777486069 | 17.78° C | 92% | 1008.5 hPa | 0 mm | - | 98 W/m² | - |
| 1777485765 | 17.78° C | 92% | 1008.4 hPa | 0 mm | - | 144 W/m² | - |
* Rain latest hour (hover to see other rain measurements)
** Current wind speed in m/s (hover to see current wind gust speed)